Zurück zum Katalog

STARLINK-35952

AktivKommunikationVLEO
NORAD 66520·PAYLOAD·🇺🇸 United States

Gestartet Nov 19, 2025 von Cape Canaveral Space Force Station

Loading…

Nächste Überflüge (nächste 24 Stunden)

TLE

AktuellSource: CelesTrak SupGP

Epoche: Sep 15, 2026, 03:38 UTC

1 66520C 25265E   26258.15187500 -.00004472  00000+0 -16195-3 0  2580
2 66520  43.0016 288.1549 0001283 262.2493 216.8354 15.27586478    17

Verfolge STARLINK-35952 in Echtzeit mit AllMySat

Download on the App Store